OBJECT BT, 62674

Orbit data source: Space-Track

You're viewing an Uncataloged Satellite

Recently launched and/or uncataloged satellites may have evolving metadata. Metadata may include but not limited to: Owner, Maufacturer, Bus, Motor, and Mission.

OBJECT BT, 62674 is a satellite in SSO that was launched on Tue, 14 Jan 2025 UTC via an FALCON 9 launch vehicle from the Air Force Western Test Range (AFWTR). Unknown objects in Earth's orbit typically refer to objects detected orbiting the Earth but have not yet been identified or cataloged. These objects could be anything from previously untracked satellites, spent rocket stages, debris from satellite collisions, or even natural meteoroids temporarily captured by Earth's gravity.

Loading next visibility...
Identifier
62674, 2025-009BT
Orbit
SSO
Country
Flag of TBDTBD
Related business
None
Manufacturer
Unknown
Mission
Operational Commercial Imaging
Bus & Motor
Unknown
Mass
Unknown
Launch date (UTC)
2025-01-14 (9 months ago)
Launch vehicle
FALCON 9
Launch site
Air Force Western Test Range (AFWTR)
Object type
Unknown
Shape & HBR
Box + 2 Pan, 0.1 m
Radar Cross Section
0.080 m², Small (<0.1 m²)

Expand to show TLE details & history
Last TLE update: 19 hours ago

TLE from 19 hours ago
0 OBJECT BT
1 62674U 25009BT  25301.18284066  .00013662  00000-0  56866-3 0  9999
2 62674  97.4270  20.0641 0006245  61.2795 298.9069 15.23852234101152
Epoch: 2025-10-28T04:23Z
TLE epoch observation values (Epoch: 2025-10-28T04:23:17.433Z)
Latitude
-0°
Longitude
-82.53253°
Altitude
495.256 km
Speed
7.618 km/s
True Right ascension
01h 20m 15s
True Declination
0° 00' 00"
Sunlit
Object was in full shadow at epoch
Visualization orbit readout
Latitude
Unknown
Longitude
Unknown
Altitude
Unknown
Speed
Unknown
Apparent Right ascension
Unknown
Apparent Declination
Unknown
Sunlit
N/A
Visualization observer readout
Local Sidereal Time
19:14:17
Azimuth
Unknown
Elevation
Unknown
Doppler factor
Unknown
Orbital elements
Apogee altitude
495.486 km
Perigee altitude
486.906 km
Semi-major axis
6,869.333 km
Eccentricity
0.00062
Inclination
97.427°
RAAN
20.0641°
Arg. of periapsis
61.2795°
True anomaly
298.84423°
Mean anomaly
298.9069°
Eccentric anomaly
298.87557°
Mean motion
3.81216 °/min
Orbital period
94.43 mins
BSTAR
0.00056866
Loading maneuver chart data...
Computing Atmospheric mass density...
Loading historical data...
Loading historical data...
Loading historical data...
Loading historical data...
Loading historical data...
Loading historical data...
Loading historical data...

Documentation

Showing up to 5 results
|